OneWeb SL0192

operational
NORAD ID: 48222 Int'l Des: 2021-031 Owner: ONEWEBN Country: UK Constellation: oneweb
LEOCIRCULARPOLARONEWEB_TYPE

关于 OneWeb SL0192

正在加载描述...

实时位置

正在加载3D地球...

即将过境

高度历史

Altitude vs Time

uPlot chart will show altitude changes over time

两行轨道根数

1 48222U 21031N 25257.54538879 .00000227 00000-0 57916-3 0 9997
2 48222 87.9082 344.6078 0001777 102.7092 257.4236 13.14503827211961
Epoch: Sep 14, 2025 • Age: 22 hours

当前状态

高度 1208.4 km
速度 7.25 km/s
星下点 3.72°N, 175.55°W
发射日期 Apr 25, 2021
运行时间 4.3 years
类型 internet

技术详情

分类 Payload
质量 148.00 kg
干质量 140.00 kg
总质量 148.00 kg
长度 1.30 m
直径 1.00 m
跨度 5.00 m
形状 Trapezoid+2 pan
制造商 ONEWUS
平台类型 ARROW
阶段状态 In Orbit
所有者/国家 ONEWEBN/UK

大型星座

Loading constellations...